[[{"header":{"parameterUnit":"m.s-1","parameterCategory":1,"la1":30.2991,"la2":30.254,"lo1":-89.0895,"lo2":-89.0444,"dy":0.0017,"dx":0.0017,"nx":28,"ny":28,"refTime":"2024-07-12T09:00:00:Z","depth":0,"parameterNumber":2,"parameterNumberName":"U-component_of_WINDS"},"data":[0,0,0,0,0,0,0,0,0,0,0,0,0,0,0,0,0,0,0,0,0,0,0,0,0,0,0,0,0,0,0,0,0,0,0,0,0,0,0,0,0,0,0,0,0,0,0,0,0,0,0,0,0,0,0,0,0,0,4.2027,4.2029,0,4.2188,4.219,4.2191,4.2163,4.216,4.2157,4.2155,4.2318,4.2325,4.2332,0,0,0,0,0,0,0,0,0,0,0,0,0,4.1691,4.1698,4.2027,4.2029,4.2031,4.2187,4.219,4.2192,4.2163,4.216,4.2157,4.2153,4.2316,4.2324,4.2332,0,0,0,0,0,0,0,0,0,0,0,0,0,4.1843,4.17,4.2026,4.2035,4.2038,4.2187,4.219,4.2192,4.2164,4.216,4.2156,4.2152,4.2313,4.2323,4.2333,4.2483,0,0,4.2365,4.237,0,0,0,0,0,0,0,0,4.1834,4.1855,4.2032,4.2035,4.2038,4.2151,4.2131,4.229,4.2165,4.2116,4.2155,4.215,4.2266,4.228,4.2319,4.2491,4.2498,4.2366,4.2373,4.2377,4.238,0,0,0,0,0,0,0,4.1824,4.1848,4.209,4.2035,4.2038,4.203,4.2047,4.2161,4.2213,4.212,4.2118,4.2138,4.2266,4.2309,4.2323,4.25,4.2366,4.2375,4.2382,4.2386,4.2798,4.2803,0,0,0,0,0,0,4.1811,4.184,4.2085,4.2095,4.1924,4.204,4.2059,4.2119,4.2211,4.2221,4.2141,4.2136,4.2293,4.2311,4.2329,4.2506,4.2377,4.2387,4.2393,4.2794,4.2799,4.2804,0,0,0,0,0,0,4.1804,4.1833,4.2079,4.1967,4.1998,4.205,4.2118,4.2124,4.2167,4.2228,4.2236,4.2176,4.2291,4.2314,4.2444,4.2512,4.2392,4.2401,4.2788,4.2795,4.2802,4.2866,0,0,0,0,0,0,4.1794,4.1831,4.1889,4.1969,4.2004,4.2193,4.2122,4.2131,4.2185,4.218,4.2262,4.2272,4.2289,4.2429,4.2454,4.2524,4.2409,4.2782,4.2791,4.28,4.2858,4.2874,4.2888,0,0,0,0,0,4.1783,4.1901,4.1892,4.1922,4.2078,4.2197,4.2217,4.2235,4.2191,4.2249,4.2287,4.2269,4.2501,4.2442,4.2471,4.2545,4.2778,4.2789,4.2799,4.2851,4.2871,4.2888,0,0,0,0,0,0,4.1829,4.1912,4.1903,4.2051,4.2117,4.2192,4.2266,4.2256,4.2336,4.2327,4.2346,4.2365,4.2496,4.2534,4.2467,4.2693,4.2633,4.265,4.2663,4.2682,4.2697,4.2684,4.2418,0,0,0,0,0,4.1856,4.1947,4.2014,4.2138,4.2172,4.2213,4.2266,4.2274,4.2343,4.237,4.2418,4.2485,4.2573,4.263,4.2714,4.2864,4.2879,4.2929,4.2944,4.2956,4.2969,4.3047,4.3069,4.2839,4.2839,4.2839,0,0,4.1914,4.197,4.2026,4.2149,4.2201,4.2292,4.2237,4.2337,4.2404,4.2386,4.251,4.2548,4.2624,4.2763,4.2827,4.2799,4.3036,4.2969,4.2979,4.2985,4.306,4.3082,4.3101,4.2846,4.2845,4.2844,0,0,4.2064,4.2118,4.2225,4.2278,4.2357,4.2384,4.241,4.2486,4.251,4.2636,4.2622,4.2703,4.2854,4.2907,4.2954,4.3123,4.3107,4.315,4.3228,4.3304,4.3322,4.3338,4.3394,4.3415,4.3164,4.3164,4.3164,0,4.2126,4.2264,4.2282,4.2382,4.2435,4.2422,4.253,4.258,4.2683,4.2719,4.2686,4.2874,4.2924,4.3074,4.3115,4.3155,4.3182,4.3139,4.3318,4.3334,4.3349,4.3403,4.3425,4.3168,4.3168,4.3167,4.3167,0,4.2333,4.2429,4.2506,4.2604,4.2666,4.277,4.2802,4.2863,4.2865,4.2894,4.3021,4.3081,4.3175,4.3212,4.3216,4.3362,4.3341,4.3313,4.3253,4.3375,4.3426,4.3447,4.3174,4.3173,4.3171,4.317,0,0,4.2517,4.2623,4.265,4.2693,4.2779,4.2853,4.2955,4.3047,4.3096,4.3168,4.3251,4.3379,4.3353,4.3406,4.3416,4.3483,4.3607,4.3446,4.3448,4.3471,4.3767,4.3785,4.3809,4.3599,4.3603,4.3606,4.3759,0,4.2673,4.2853,4.2871,4.3031,4.3118,4.3106,4.3195,4.3256,4.3286,4.3362,4.3395,4.3484,4.3444,4.3476,4.3542,4.3578,4.3667,4.3568,4.3674,4.3678,4.3652,4.3836,4.3857,4.3998,4.378,4.3783,4.3786,0,4.2879,4.2954,4.3123,4.3194,4.3231,4.331,4.3394,4.3469,4.3537,4.3553,4.3612,4.3612,4.3715,4.3653,4.3793,4.3725,4.377,4.3794,4.38,4.3808,4.3737,4.3846,4.4044,4.4064,4.3818,4.3816,4.3813,0,4.2991,4.3136,4.3254,4.3292,4.3378,4.3433,4.3472,4.3536,4.3589,4.3663,4.3696,4.3782,4.3827,4.3892,4.3914,4.3868,4.4052,4.3993,4.4066,4.4065,4.4103,4.41,4.4308,4.4138,4.4138,4.4137,4.4137,0,4.3162,4.3264,4.3305,4.3378,4.3492,4.3511,4.3623,4.3659,4.3715,4.3793,4.3789,4.3862,4.3889,4.3966,4.3984,4.4095,4.4117,4.4131,4.4134,4.4129,4.4127,4.4157,4.4146,4.4143,4.4142,4.4141,4.414,0,4.3306,4.3338,4.3466,4.3536,4.3556,4.3637,4.3696,4.3765,4.3793,4.3892,4.3916,4.396,4.405,4.4079,4.4189,4.42,4.4329,4.4325,4.4305,4.4305,4.4375,4.4367,4.4607,4.4638,4.4451,4.4452,4.4454,0,4.3411,4.3489,4.3568,4.3619,4.366,4.3744,4.3797,4.3819,4.3875,4.3957,4.4015,4.4104,4.4176,4.432,4.4361,4.4443,4.4439,4.4518,4.4452,4.4443,4.4436,4.443,4.4436,4.4529,4.4531,4.4533,4.4534,0,4.3593,4.3604,4.3682,4.3765,4.3828,4.3895,4.3959,4.4001,4.4032,4.4095,4.4186,4.4242,4.4352,4.4439,4.4523,4.4561,4.4552,4.4555,4.4575,4.457,4.4554,4.456,4.4335,4.4549,4.4547,4.4546,4.4545,4.4545,4.3718,4.3786,4.3851,4.3937,4.3987,4.4046,4.4113,4.4149,4.4226,4.4317,4.4325,4.4423,4.4486,4.4597,4.4639,4.4715,4.4692,4.4723,4.4731,4.4737,4.4741,4.4545,4.4731,4.473,4.473,4.473,4.473,0,4.3897,4.3937,4.4016,4.4105,4.4172,4.4158,4.4227,4.4283,4.437,4.443,4.45,4.4603,4.4688,4.4735,4.4818,4.4869,4.4867,4.489,4.4885,4.4893,4.4758,4.473,4.489,4.489,4.489,4.489,4.489,4.489,4.3997,4.411,4.4128,4.4265,4.4304,4.44,4.444,4.4494,4.4541,4.4657,4.4726,4.4756,4.481,4.4897,4.4972,4.4984,4.5013,4.5038,4.5047,4.4919,4.4903,4.4887,4.486,4.5045,4.5046,4.5175,4.5176,4.5177]},{"header":{"parameterUnit":"m.s-1","parameterCategory":1,"la1":30.2991,"la2":30.254,"lo1":-89.0895,"lo2":-89.0444,"dy":0.0017,"dx":0.0017,"nx":28,"ny":28,"refTime":"2024-07-12T09:00:00:Z","depth":0,"parameterNumber":3,"parameterNumberName":"V-component_of_WINDS"},"data":[0,0,0,0,0,0,0,0,0,0,0,0,0,0,0,0,0,0,0,0,0,0,0,0,0,0,0,0,0,0,0,0,0,0,0,0,0,0,0,0,0,0,0,0,0,0,0,0,0,0,0,0,0,0,0,0,0,0,1.1662,1.1662,0,1.169,1.169,1.169,1.168,1.168,1.1679,1.1678,1.1705,1.1707,1.1708,0,0,0,0,0,0,0,0,0,0,0,0,0,1.1597,1.1598,1.1662,1.1662,1.1663,1.169,1.169,1.169,1.168,1.1679,1.1679,1.1678,1.1705,1.1707,1.1708,0,0,0,0,0,0,0,0,0,0,0,0,0,1.1625,1.1599,1.1662,1.1661,1.1661,1.169,1.169,1.1691,1.168,1.1679,1.1679,1.1678,1.1704,1.1706,1.1708,1.1739,0,0,1.1714,1.1715,0,0,0,0,0,0,0,0,1.1623,1.1627,1.1661,1.1661,1.1661,1.1681,1.1677,1.1707,1.1681,1.1673,1.1678,1.1677,1.1698,1.17,1.1708,1.1741,1.1742,1.1714,1.1716,1.1716,1.1717,0,0,0,0,0,0,0,1.1622,1.1626,1.1673,1.1661,1.1661,1.1658,1.1661,1.1683,1.169,1.1674,1.1673,1.1676,1.1698,1.1706,1.1708,1.1742,1.1714,1.1716,1.1717,1.1718,1.18,1.1801,0,0,0,0,0,0,1.162,1.1625,1.1672,1.1674,1.164,1.166,1.1663,1.1675,1.169,1.1691,1.1677,1.1676,1.1703,1.1706,1.1709,1.1745,1.1716,1.1718,1.1719,1.1799,1.18,1.1801,0,0,0,0,0,0,1.1618,1.1624,1.1671,1.1649,1.1655,1.1662,1.1676,1.1676,1.1684,1.1693,1.1694,1.1684,1.1702,1.1706,1.1732,1.1746,1.1719,1.1721,1.1798,1.18,1.1801,1.1819,0,0,0,0,0,0,1.1617,1.1624,1.1636,1.1649,1.1656,1.1694,1.1677,1.1678,1.1688,1.1686,1.17,1.1701,1.1702,1.1729,1.1733,1.1748,1.1723,1.1797,1.1799,1.18,1.1817,1.1821,1.1824,0,0,0,0,0,1.1614,1.164,1.1637,1.1643,1.1672,1.1695,1.1698,1.1699,1.1689,1.1701,1.1706,1.17,1.1744,1.1731,1.1737,1.1752,1.1796,1.1798,1.18,1.1815,1.182,1.1824,0,0,0,0,0,0,1.1628,1.1642,1.1639,1.167,1.1681,1.1693,1.1708,1.1704,1.1719,1.1717,1.1717,1.172,1.1746,1.1751,1.1738,1.1782,1.1768,1.1771,1.1778,1.1782,1.1785,1.1783,1.1724,0,0,0,0,0,1.1635,1.1653,1.1664,1.169,1.1696,1.1701,1.1711,1.1711,1.1723,1.1727,1.1734,1.1746,1.1761,1.1772,1.1787,1.1817,1.182,1.1831,1.1834,1.1837,1.184,1.1855,1.186,1.1809,1.1809,1.1809,0,0,1.1649,1.1659,1.167,1.1693,1.1702,1.172,1.1705,1.1725,1.1738,1.173,1.1754,1.176,1.1772,1.18,1.1812,1.1805,1.1854,1.184,1.1842,1.1843,1.1858,1.1862,1.1867,1.181,1.181,1.181,0,0,1.1684,1.1693,1.1716,1.1725,1.1738,1.1741,1.1747,1.1759,1.1762,1.1787,1.1781,1.1796,1.1824,1.1832,1.184,1.1876,1.1871,1.1881,1.19,1.1914,1.1918,1.1922,1.1934,1.1938,1.1884,1.1884,1.1884,0,1.17,1.1727,1.1728,1.1748,1.1757,1.1751,1.1773,1.1781,1.1799,1.1805,1.1797,1.1831,1.1839,1.1868,1.1877,1.1884,1.1889,1.188,1.1918,1.1921,1.1924,1.1936,1.1941,1.1885,1.1885,1.1885,1.1885,0,1.1745,1.1764,1.178,1.1797,1.1809,1.183,1.1832,1.1844,1.1842,1.1845,1.1869,1.1879,1.1895,1.1902,1.19,1.193,1.1925,1.1918,1.1903,1.193,1.1941,1.1946,1.1887,1.1887,1.1886,1.1886,0,0,1.179,1.1807,1.1812,1.182,1.1833,1.1848,1.1867,1.1884,1.1893,1.1905,1.1921,1.1944,1.1937,1.1946,1.1945,1.1958,1.1985,1.1948,1.1949,1.1954,1.2017,1.2022,1.2027,1.1981,1.1982,1.1983,1.2015,0,1.1825,1.1861,1.1861,1.1893,1.191,1.1904,1.1921,1.193,1.1934,1.1948,1.1951,1.1967,1.1957,1.1962,1.1975,1.1979,1.1997,1.1976,1.1995,1.1996,1.1992,1.2033,1.2039,1.207,1.202,1.202,1.2021,0,1.1871,1.1884,1.1918,1.1929,1.1936,1.1951,1.1965,1.1979,1.1989,1.1991,1.2001,1.1998,1.2017,1.2002,1.2027,1.2013,1.2021,1.2024,1.2025,1.2026,1.201,1.2035,1.208,1.2084,1.2028,1.2027,1.2027,0,1.1899,1.1926,1.1949,1.1956,1.1969,1.1979,1.1985,1.1995,1.2004,1.2016,1.2022,1.2036,1.2044,1.2054,1.2054,1.2044,1.208,1.2065,1.2081,1.2081,1.2089,1.2088,1.2135,1.2094,1.2094,1.2094,1.2094,0,1.1938,1.1959,1.1962,1.1977,1.1999,1.1999,1.2021,1.2026,1.2034,1.2048,1.2044,1.2057,1.2057,1.207,1.2071,1.2091,1.2095,1.2096,1.2096,1.2096,1.2096,1.2101,1.2099,1.2095,1.2095,1.2095,1.2095,0,1.1974,1.1977,1.2002,1.2012,1.2015,1.2031,1.2039,1.2052,1.2054,1.2073,1.2077,1.2081,1.2096,1.2098,1.2116,1.2116,1.214,1.2138,1.2137,1.2136,1.2152,1.215,1.2203,1.2209,1.2165,1.2165,1.2166,0,1.1999,1.2014,1.2026,1.2035,1.2041,1.2057,1.2066,1.2066,1.2076,1.2088,1.2099,1.2114,1.2126,1.2151,1.2155,1.2168,1.2166,1.2183,1.2168,1.2168,1.2165,1.2164,1.2165,1.2186,1.2187,1.2187,1.2188,0,1.2041,1.2042,1.2056,1.207,1.2081,1.2092,1.2103,1.211,1.2111,1.2122,1.2138,1.2147,1.2165,1.218,1.2193,1.2197,1.2192,1.2192,1.2196,1.2197,1.2196,1.2196,1.2145,1.2191,1.2191,1.2191,1.219,1.219,1.2072,1.2085,1.2095,1.211,1.2118,1.2127,1.214,1.2144,1.2157,1.2172,1.2171,1.2188,1.2197,1.2213,1.2219,1.2232,1.2226,1.2232,1.2234,1.2235,1.2237,1.2194,1.2234,1.2234,1.2234,1.2234,1.2234,0,1.2114,1.212,1.2134,1.2148,1.216,1.2154,1.2165,1.2175,1.219,1.2199,1.2211,1.2228,1.2242,1.2247,1.226,1.2269,1.2267,1.2272,1.2271,1.2272,1.2241,1.2236,1.2274,1.2274,1.2274,1.2274,1.2274,1.2274,1.2137,1.2159,1.216,1.2185,1.2191,1.2208,1.2214,1.2223,1.2229,1.2249,1.2261,1.2264,1.2271,1.2284,1.2296,1.2297,1.2302,1.2308,1.2308,1.2279,1.2275,1.2271,1.2266,1.2309,1.2309,1.2338,1.2338,1.2338]}]]